Location: Michelbach Markt
(48.1000°N, 15.7500°E)
Time: 11:03:11
(UTC+02:00)

N. Korean satellite - Visible Passes

Search period start: 31 March 2023 00:00
Search period end: 10 April 2023 00:00
Orbit: 389 x 416 km, 97.3° (Epoch: 30 March)

Date Brightness Start Highest point End Pass type
(mag) Time Alt. Az. Time Alt. Az. Time Alt. Az.
31 Mar 8.3 06:05:05 10° NNE 06:07:56 32° E 06:10:44 10° SSE visible
02 Apr 8.7 05:57:51 10° NE 06:00:31 26° E 06:03:08 10° SSE visible
04 Apr 9.2 05:50:05 10° NE 05:52:28 20° E 05:54:51 10° SE visible
06 Apr 9.3 05:41:48 10° NE 05:43:47 16° E 05:45:47 10° SE visible
08 Apr 9.6 05:33:07 10° ENE 05:34:29 12° E 05:35:50 10° ESE visible
